Location: JKWMA (FRAC)
(33.1803°N, 84.5512°W)
Time: 13:56:42
(UTC-04:00)

Hubble Space Telescope - Pass Details

Date: 24 March 2019
Orbit: 536 x 540 km, 28.5° (Epoch: 19 October)

Event Time Altitude Azimuth Distance (km) Brightness Sun altitude
Rises 20:56:15 0° 231° (SW) 2,668 4.9 -14.0°
Reaches altitude 10° 20:58:49 10° 217° (SW) 1,780 3.7 -14.6°
Maximum altitude 21:02:09 24° 163° (SSE) 1,137 2.1 -15.2°
Enters shadow 21:03:09 22° 141° (SE) 1,208 2.1 -15.4°
